Time,TemperatureF,DewpointF,PressureIn,WindDirection,WindDirectionDegrees,WindSpeedMPH,WindSpeedGustMPH,Humidity,HourlyPrecipIn,Conditions,Clouds,dailyrainin,SoftwareType,DateUTC
2013-07-28 00:03:00,71.6,66.1,29.92,North,0,0.0,0.0,83,0.00,,,0.00,WUHU216HW,2013-07-28 05:03:00,
2013-07-28 00:17:00,71.7,66.3,29.92,North,0,0.0,0.0,83,0.00,,,0.00,WUHU216HW,2013-07-28 05:17:00,
2013-07-28 00:22:00,71.7,66.3,29.92,North,0,0.0,0.0,83,0.00,,,0.00,WUHU216HW,2013-07-28 05:22:00,
2013-07-28 00:43:00,71.7,66.3,29.92,North,0,0.0,0.0,83,0.00,,,0.00,WUHU216HW,2013-07-28 05:43:00,
2013-07-28 00:48:00,71.7,66.3,29.92,North,0,0.0,0.0,83,0.00,,,0.00,WUHU216HW,2013-07-28 05:48:00,
2013-07-28 01:45:00,70.7,65.5,29.92,North,0,0.0,0.0,84,0.00,,,0.00,WUHU216HW,2013-07-28 06:45:00,
2013-07-28 04:05:00,68.7,64.6,29.91,North,0,0.0,0.0,87,0.00,,,0.00,WUHU216HW,2013-07-28 09:05:00,
2013-07-28 04:10:00,68.7,64.6,29.91,North,0,0.0,0.0,87,0.00,,,0.00,WUHU216HW,2013-07-28 09:10:00,
2013-07-28 04:41:00,68.7,64.6,29.91,North,0,0.0,0.0,87,0.00,,,0.00,WUHU216HW,2013-07-28 09:41:00,
2013-07-28 04:46:00,68.7,64.6,29.91,North,0,0.0,0.0,87,0.00,,,0.00,WUHU216HW,2013-07-28 09:46:00,
2013-07-28 05:01:00,69.0,65.3,29.90,North,0,0.0,0.0,88,0.00,,,0.00,WUHU216HW,2013-07-28 10:01:00,
2013-07-28 05:37:00,68.1,64.4,29.90,North,0,0.0,0.0,88,0.00,,,0.00,WUHU216HW,2013-07-28 10:37:00,
2013-07-28 05:42:00,68.1,64.4,29.90,North,0,0.0,0.0,88,0.00,,,0.00,WUHU216HW,2013-07-28 10:42:00,
2013-07-28 07:39:00,69.9,66.5,29.92,North,0,0.0,0.0,89,0.00,,,0.00,WUHU216HW,2013-07-28 12:39:00,
2013-07-28 08:27:00,71.2,67.8,29.93,North,0,0.0,0.0,89,0.00,,,0.00,WUHU216HW,2013-07-28 13:27:00,
2013-07-28 08:32:00,71.2,67.8,29.93,North,0,0.0,0.0,89,0.00,,,0.00,WUHU216HW,2013-07-28 13:32:00,
2013-07-28 08:38:00,71.7,68.3,29.93,North,0,0.0,0.0,89,0.00,,,0.00,WUHU216HW,2013-07-28 13:38:00,
2013-07-28 08:43:00,71.7,68.3,29.93,North,0,0.0,0.0,89,0.00,,,0.00,WUHU216HW,2013-07-28 13:43:00,
2013-07-28 09:03:00,73.0,69.2,29.94,North,0,0.0,0.0,88,0.00,,,0.00,WUHU216HW,2013-07-28 14:03:00,
2013-07-28 09:08:00,73.2,69.4,29.94,North,0,0.0,0.0,88,0.00,,,0.00,WUHU216HW,2013-07-28 14:08:00,
2013-07-28 09:13:00,73.2,69.4,29.94,North,0,0.0,0.0,88,0.00,,,0.00,WUHU216HW,2013-07-28 14:13:00,
2013-07-28 10:21:00,77.9,72.3,29.93,North,0,0.0,0.0,83,0.00,,,0.00,WUHU216HW,2013-07-28 15:21:00,
2013-07-28 11:40:00,86.7,75.3,29.93,North,0,0.0,0.0,69,0.00,,,0.00,WUHU216HW,2013-07-28 16:40:00,
2013-07-28 11:45:00,87.9,73.8,29.94,North,0,0.0,0.0,63,0.00,,,0.00,WUHU216HW,2013-07-28 16:45:00,
2013-07-28 11:50:00,87.9,73.8,29.94,North,0,0.0,0.0,63,0.00,,,0.00,WUHU216HW,2013-07-28 16:50:00,
2013-07-28 12:13:00,89.4,74.7,29.93,North,0,0.0,0.0,62,0.00,,,0.00,WUHU216HW,2013-07-28 17:13:00,
2013-07-28 13:27:00,93.9,73.6,29.92,North,0,0.0,0.0,52,0.00,,,0.00,WUHU216HW,2013-07-28 18:27:00,
2013-07-28 13:32:00,93.9,73.6,29.92,North,0,0.0,0.0,52,0.00,,,0.00,WUHU216HW,2013-07-28 18:32:00,
2013-07-28 13:41:00,94.6,74.8,29.92,North,0,0.0,0.0,53,0.00,,,0.00,WUHU216HW,2013-07-28 18:41:00,
2013-07-28 13:46:00,94.6,74.8,29.92,North,0,0.0,0.0,53,0.00,,,0.00,WUHU216HW,2013-07-28 18:46:00,
2013-07-28 13:55:00,94.8,75.5,29.91,North,0,0.0,0.0,54,0.00,,,0.00,WUHU216HW,2013-07-28 18:55:00,
2013-07-28 14:09:00,95.9,74.3,29.91,North,0,0.0,0.0,50,0.00,,,0.00,WUHU216HW,2013-07-28 19:09:00,
2013-07-28 14:57:00,96.0,76.1,29.89,North,0,0.0,0.0,53,0.00,,,0.00,WUHU216HW,2013-07-28 19:57:00,
2013-07-28 15:09:00,96.6,75.5,29.88,North,0,0.0,0.0,51,0.00,,,0.00,WUHU216HW,2013-07-28 20:09:00,
2013-07-28 15:32:00,97.3,75.0,29.88,North,0,0.0,0.0,49,0.00,,,0.00,WUHU216HW,2013-07-28 20:32:00,
2013-07-28 15:37:00,97.3,75.0,29.88,North,0,0.0,0.0,49,0.00,,,0.00,WUHU216HW,2013-07-28 20:37:00,
2013-07-28 16:08:00,98.2,74.5,29.86,North,0,0.0,0.0,47,0.00,,,0.00,WUHU216HW,2013-07-28 21:08:00,
2013-07-28 16:13:00,98.2,74.5,29.86,North,0,0.0,0.0,47,0.00,,,0.00,WUHU216HW,2013-07-28 21:13:00,
2013-07-28 17:28:00,95.7,73.5,29.84,North,0,0.0,0.0,49,0.00,,,0.00,WUHU216HW,2013-07-28 22:28:00,
2013-07-28 17:33:00,95.7,73.5,29.84,North,0,0.0,0.0,48,0.00,,,0.00,WUHU216HW,2013-07-28 22:33:00,
2013-07-28 17:38:00,95.7,73.5,29.84,North,0,0.0,0.0,48,0.00,,,0.00,WUHU216HW,2013-07-28 22:38:00,
2013-07-28 18:32:00,92.4,71.6,29.84,North,0,0.0,0.0,52,0.00,,,0.00,WUHU216HW,2013-07-28 23:32:00,
2013-07-28 18:37:00,92.4,71.6,29.84,North,0,0.0,0.0,52,0.00,,,0.00,WUHU216HW,2013-07-28 23:37:00,
2013-07-28 20:33:00,85.2,69.8,29.86,North,0,0.0,0.0,60,0.00,,,0.00,WUHU216HW,2013-07-29 01:33:00,
2013-07-28 20:52:00,84.3,69.9,29.86,North,0,0.0,0.0,62,0.00,,,0.00,WUHU216HW,2013-07-29 01:52:00,
2013-07-28 21:07:00,83.8,69.8,29.87,North,0,0.0,0.0,63,0.00,,,0.00,WUHU216HW,2013-07-29 02:07:00,
2013-07-28 21:12:00,83.8,69.8,29.87,North,0,0.0,0.0,63,0.00,,,0.00,WUHU216HW,2013-07-29 02:12:00,
2013-07-28 21:27:00,83.3,70.2,29.88,North,0,0.0,0.0,65,0.00,,,0.00,WUHU216HW,2013-07-29 02:27:00,
2013-07-28 21:45:00,82.9,69.8,29.88,North,0,0.0,0.0,66,0.00,,,0.00,WUHU216HW,2013-07-29 02:45:00,
2013-07-28 21:50:00,82.7,70.1,29.88,North,0,0.0,0.0,66,0.00,,,0.00,WUHU216HW,2013-07-29 02:50:00,
2013-07-28 21:55:00,82.7,70.1,29.88,North,0,0.0,0.0,66,0.00,,,0.00,WUHU216HW,2013-07-29 02:55:00,
2013-07-28 22:27:00,81.5,69.8,29.89,North,0,0.0,0.0,68,0.00,,,0.00,WUHU216HW,2013-07-29 03:27:00,
2013-07-28 22:48:00,80.9,69.4,29.90,North,0,0.0,0.0,68,0.00,,,0.00,WUHU216HW,2013-07-29 03:48:00,
2013-07-28 23:07:00,80.4,69.8,29.91,North,0,0.0,0.0,70,0.00,,,0.00,WUHU216HW,2013-07-29 04:07:00,
2013-07-28 23:26:00,80.2,69.6,29.91,North,0,0.0,0.0,72,0.00,,,0.00,WUHU216HW,2013-07-29 04:26:00,
2013-07-28 23:40:00,79.7,70.2,29.91,North,0,0.0,0.0,74,0.00,,,0.00,WUHU216HW,2013-07-29 04:40:00,
2013-07-28 23:45:00,79.3,70.3,29.91,North,0,0.0,0.0,75,0.00,,,0.00,WUHU216HW,2013-07-29 04:45:00,
2013-07-28 23:50:00,79.3,70.3,29.91,North,0,0.0,0.0,76,0.00,,,0.00,WUHU216HW,2013-07-29 04:50:00,
2013-07-28 23:55:00,79.3,70.3,29.91,North,0,0.0,0.0,76,0.00,,,0.00,WUHU216HW,2013-07-29 04:55:00,